Estación de Lontue
Ultimos registro cada 15 minutos 66
| N° | Estación | Fecha / Hora | Temperatura | Humedad | Lluvia | Velocidad | Dirección | Radiación | Presion |
| 66 | Lontue | 07-05-2026 16:15 | 13,8 | 64,7 | 0 | 3 | 170 | 104,4 | 999,9 |
| 65 | Lontue | 07-05-2026 16:00 | 14 | 65,3 | 0 | 3,4 | 167 | 139,4 | 999,9 |
| 64 | Lontue | 07-05-2026 15:45 | 14,2 | 64,7 | 0 | 4,6 | 187 | 159,4 | 1000,1 |
| 63 | Lontue | 07-05-2026 15:30 | 14,7 | 60,9 | 0 | 3 | 194 | 198,1 | 999,7 |
| 62 | Lontue | 07-05-2026 15:15 | 14,6 | 59,1 | 0 | 3 | 184 | 249,4 | 999,4 |
| 61 | Lontue | 07-05-2026 15:00 | 15,1 | 58,9 | 0 | 2,7 | 181 | 459,4 | 999,7 |
| 60 | Lontue | 07-05-2026 14:45 | 14,7 | 61,4 | 0 | 2,7 | 174 | 471,9 | 999,5 |
| 59 | Lontue | 07-05-2026 14:30 | 14,9 | 60,6 | 0 | 3 | 163 | 498,1 | 999,9 |
| 58 | Lontue | 07-05-2026 14:15 | 14,4 | 63,5 | 0 | 3,4 | 171 | 526,9 | 1000,3 |
| 57 | Lontue | 07-05-2026 14:00 | 14,5 | 62,8 | 0 | 3,4 | 185 | 551,9 | 1000,2 |
| 56 | Lontue | 07-05-2026 13:45 | 14,4 | 64,9 | 0 | 2,7 | 181 | 570,6 | 1000,2 |
| 55 | Lontue | 07-05-2026 13:30 | 14,7 | 65,5 | 0 | 0,8 | 160 | 649,4 | 1000,4 |
| 54 | Lontue | 07-05-2026 13:15 | 13,8 | 69,6 | 0 | 0,8 | 170 | 101,9 | 1000,5 |
| 53 | Lontue | 07-05-2026 13:00 | 14,2 | 69 | 0 | 0,4 | 69 | 618,1 | 1000,8 |
| 52 | Lontue | 07-05-2026 12:45 | 13,5 | 70,7 | 0 | 0,8 | 159 | 610,6 | 1000,9 |
| 51 | Lontue | 07-05-2026 12:30 | 13,1 | 73,3 | 0 | 0,8 | 126 | 716,9 | 1001,3 |
| 50 | Lontue | 07-05-2026 12:15 | 11,7 | 75,5 | 0 | 1,1 | 156 | 656,9 | 1001,5 |
| 49 | Lontue | 07-05-2026 12:00 | 12 | 71,9 | 0 | 1,1 | 145 | 704,4 | 1001,7 |
| 48 | Lontue | 07-05-2026 11:45 | 11,4 | 76,5 | 0 | 0,8 | 191 | 428,1 | 1001,9 |
| 47 | Lontue | 07-05-2026 11:30 | 11,4 | 76 | 0 | 1,1 | 178 | 376,9 | 1002 |
| 46 | Lontue | 07-05-2026 11:15 | 11,1 | 77,8 | 0 | 0,4 | 145 | 238,1 | 1002,2 |
| 45 | Lontue | 07-05-2026 11:00 | 10 | 81,3 | 0 | 1,1 | 177 | 244,4 | 1002,2 |
| 44 | Lontue | 07-05-2026 10:45 | 9,6 | 81,8 | 0 | 1,1 | 188 | 161,9 | 1002,1 |
| 43 | Lontue | 07-05-2026 10:30 | 9,4 | 83,2 | 0 | 1,1 | 190 | 218,1 | 1001,8 |
| 42 | Lontue | 07-05-2026 10:15 | 9,2 | 84,9 | 0 | 1,1 | 184 | 184,4 | 1002,1 |
| 41 | Lontue | 07-05-2026 10:00 | 8,8 | 84,9 | 0 | 0,4 | 160 | 134,4 | 1002,1 |
| 40 | Lontue | 07-05-2026 09:45 | 8,5 | 87,8 | 0 | 1,1 | 170 | 93,1 | 1002,2 |
| 39 | Lontue | 07-05-2026 09:30 | 8,4 | 87,7 | 0 | 1,5 | 192 | 120,6 | 1002 |
| 38 | Lontue | 07-05-2026 09:15 | 8 | 90,5 | 0 | 1,5 | 188 | 85,6 | 1001,8 |
| 37 | Lontue | 07-05-2026 09:00 | 7,8 | 90,6 | 0 | 0,8 | 170 | 59,4 | 1001,9 |
| 36 | Lontue | 07-05-2026 08:45 | 7,7 | 90,8 | 0 | 0,4 | 142 | 34,4 | 1001,6 |
| 35 | Lontue | 07-05-2026 08:30 | 7,5 | 90,4 | 0 | 1,9 | 175 | 18,1 | 1001,6 |
| 34 | Lontue | 07-05-2026 08:15 | 7,6 | 90 | 0 | 2,7 | 180 | 10,6 | 1001,4 |
| 33 | Lontue | 07-05-2026 08:00 | 7,6 | 89,9 | 0 | 1,1 | 174 | 28,1 | 1001,1 |
| 32 | Lontue | 07-05-2026 07:45 | 7,8 | 90 | 0 | 0,8 | 175 | 6,9 | 1000,7 |
| 31 | Lontue | 07-05-2026 07:30 | 8 | 89,1 | 0 | 1,1 | 181 | 0,6 | 1000,8 |
| 30 | Lontue | 07-05-2026 07:15 | 8,2 | 88,6 | 0 | 0,4 | 191 | 0,6 | 1000,6 |
| 29 | Lontue | 07-05-2026 07:00 | 8,2 | 88,4 | 0 | 0,8 | 177 | 0,6 | 1000,5 |
| 28 | Lontue | 07-05-2026 06:45 | 8,3 | 88,3 | 0 | 1,1 | 178 | 0,6 | 1000,5 |
| 27 | Lontue | 07-05-2026 06:30 | 8,3 | 88,2 | 0 | 1,1 | 170 | 0,6 | 1000,5 |
| 26 | Lontue | 07-05-2026 06:15 | 8,4 | 88,2 | 0 | 1,9 | 170 | 0,6 | 1000,3 |
| 25 | Lontue | 07-05-2026 06:00 | 8,3 | 87,7 | 0 | 2,3 | 178 | 0,6 | 1000,1 |
| 24 | Lontue | 07-05-2026 05:45 | 8,7 | 87,2 | 0 | 1,1 | 177 | 0,6 | 999,9 |
| 23 | Lontue | 07-05-2026 05:30 | 8,9 | 86,8 | 0 | 1,9 | 171 | 0,6 | 999,7 |
| 22 | Lontue | 07-05-2026 05:15 | 9 | 86,7 | 0 | 1,1 | 150 | 0,6 | 999,8 |
| 21 | Lontue | 07-05-2026 05:00 | 9,1 | 86,8 | 0 | 1,1 | 167 | 0,6 | 999,7 |
| 20 | Lontue | 07-05-2026 04:45 | 9 | 86,6 | 0 | 1,9 | 173 | 0,6 | 999,3 |
| 19 | Lontue | 07-05-2026 04:30 | 9,1 | 86,5 | 0 | 1,9 | 174 | 0,6 | 999 |
| 18 | Lontue | 07-05-2026 04:15 | 9,1 | 86,6 | 0 | 0 | 145 | 0,6 | 998,9 |
| 17 | Lontue | 07-05-2026 04:00 | 9 | 86,8 | 0 | 1,1 | 167 | 0,6 | 999 |
| 16 | Lontue | 07-05-2026 03:45 | 9,2 | 86,2 | 0 | 1,1 | 167 | 0,6 | 998,8 |
| 15 | Lontue | 07-05-2026 03:30 | 9,3 | 86,4 | 0 | 0,8 | 178 | 0,6 | 998,9 |
| 14 | Lontue | 07-05-2026 03:15 | 9,4 | 85,9 | 0 | 0,4 | 153 | 0,6 | 998,8 |
| 13 | Lontue | 07-05-2026 03:00 | 9,5 | 85,4 | 0 | 1,5 | 150 | 0,6 | 998,9 |
| 12 | Lontue | 07-05-2026 02:45 | 9,7 | 84,2 | 0 | 3 | 194 | 0,6 | 998,9 |
| 11 | Lontue | 07-05-2026 02:30 | 9,5 | 85,7 | 0 | 2,3 | 195 | 0,6 | 998,5 |
| 10 | Lontue | 07-05-2026 02:15 | 9,5 | 86,2 | 0 | 1,9 | 181 | 0,6 | 998,6 |
| 9 | Lontue | 07-05-2026 02:00 | 9,6 | 85,7 | 0 | 1,9 | 173 | 0,6 | 998,5 |
| 8 | Lontue | 07-05-2026 01:45 | 9,6 | 86,7 | 0 | 0,8 | 166 | 0,6 | 998,4 |
| 7 | Lontue | 07-05-2026 01:30 | 9,6 | 87 | 0 | 0,8 | 170 | 0,6 | 998,2 |
| 6 | Lontue | 07-05-2026 01:15 | 9,8 | 86,6 | 0 | 0,4 | 166 | 0,6 | 998 |
| 5 | Lontue | 07-05-2026 01:00 | 9,8 | 86,2 | 0 | 0 | 185 | 0,6 | 998 |
| 4 | Lontue | 07-05-2026 00:45 | 10 | 85,5 | 0 | 0,4 | 177 | 0,6 | 997,9 |
| 3 | Lontue | 07-05-2026 00:30 | 10,1 | 85,4 | 0 | 0,8 | 181 | 0,6 | 998,1 |
| 2 | Lontue | 07-05-2026 00:15 | 10,1 | 85,5 | 0 | 0,4 | 163 | 0,6 | 997,9 |
| 1 | Lontue | 07-05-2026 00:00 | 10,2 | 84,9 | 0 | 0,8 | 174 | 0,6 | 997,6 |